Total_Precipitation_Accumulation
0.15 0.23 0.58 0.75 0.77 0.68 0.60 0.53 0.49 0.49 0.47 0.43 0.42 0.42 0.38 0.36 0.34 0.34 0.36 0.39 0.45 0.54 0.64 0.72 0.75 0.81 0.75 0.58 0.42 0.29 0.28 0.30 0.24 0.22 0.22 0.26 0.32 0.34 0.30 0.29 0.30 0.37 0.49
0.17 0.26 0.54 0.76 0.86 0.81 0.70 0.62 0.52 0.48 0.46 0.48 0.49 0.52 0.48 0.42 0.41 0.43 0.47 0.50 0.57 0.67 0.75 0.78 0.75 0.76 0.69 0.55 0.38 0.23 0.16 0.14 0.09 0.07 0.06 0.10 0.20 0.29 0.26 0.25 0.27 0.40 0.46
0.19 0.28 0.51 0.76 0.91 0.90 0.83 0.73 0.64 0.60 0.56 0.58 0.62 0.64 0.61 0.57 0.55 0.56 0.60 0.62 0.67 0.72 0.73 0.78 0.72 0.68 0.60 0.49 0.35 0.25 0.15 0.11 0.08 0.05 0.07 0.10 0.22 0.31 0.28 0.27 0.34 0.44 0.47
0.24 0.33 0.50 0.77 0.98 0.99 0.94 0.84 0.78 0.81 0.76 0.72 0.75 0.76 0.74 0.73 0.69 0.68 0.68 0.70 0.70 0.69 0.66 0.65 0.55 0.49 0.40 0.35 0.30 0.25 0.18 0.13 0.08 0.08 0.12 0.15 0.24 0.45 0.45 0.42 0.42 0.44 0.46
0.37 0.46 0.65 0.88 1.06 1.12 1.01 0.99 0.95 0.98 0.97 0.92 0.87 0.87 0.89 0.86 0.80 0.74 0.71 0.72 0.68 0.63 0.56 0.52 0.42 0.33 0.28 0.24 0.23 0.23 0.17 0.12 0.09 0.10 0.13 0.17 0.28 0.54 0.51 0.47 0.42 0.39 0.44
0.53 0.61 0.82 1.02 1.17 1.22 1.10 1.06 1.06 1.08 1.12 1.09 0.99 0.94 0.96 0.96 0.86 0.75 0.70 0.65 0.58 0.54 0.51 0.43 0.36 0.29 0.25 0.24 0.23 0.21 0.18 0.11 0.08 0.10 0.13 0.18 0.27 0.48 0.43 0.38 0.39 0.40 0.44
0.75 0.83 0.99 1.23 1.43 1.48 1.36 1.27 1.22 1.19 1.19 1.21 1.11 1.01 1.04 1.08 1.05 0.86 0.71 0.60 0.51 0.48 0.44 0.39 0.34 0.30 0.27 0.25 0.26 0.21 0.15 0.10 0.09 0.10 0.13 0.19 0.33 0.51 0.46 0.41 0.39 0.40 0.42
0.96 1.06 1.25 1.49 1.60 1.70 1.62 1.51 1.45 1.39 1.30 1.26 1.25 1.19 1.15 1.18 1.19 0.98 0.73 0.61 0.56 0.51 0.45 0.42 0.39 0.33 0.30 0.27 0.25 0.20 0.14 0.09 0.08 0.09 0.11 0.17 0.33 0.51 0.50 0.45 0.41 0.38 0.38
1.26 1.40 1.49 1.62 1.73 1.91 1.77 1.60 1.58 1.55 1.46 1.38 1.35 1.29 1.19 1.19 1.14 0.97 0.75 0.65 0.61 0.56 0.50 0.45 0.44 0.40 0.34 0.30 0.26 0.19 0.14 0.09 0.07 0.09 0.10 0.15 0.28 0.45 0.48 0.49 0.46 0.43 0.40
1.58 1.72 1.74 1.77 1.85 2.04 1.98 1.72 1.57 1.46 1.44 1.45 1.38 1.19 0.99 0.98 1.02 0.95 0.69 0.62 0.62 0.56 0.50 0.47 0.46 0.44 0.37 0.28 0.24 0.19 0.14 0.14 0.10 0.10 0.11 0.16 0.28 0.42 0.44 0.49 0.50 0.48 0.45
1.96 2.02 2.03 1.97 1.92 2.03 2.08 1.86 1.76 1.62 1.51 1.46 1.41 1.17 0.99 0.99 0.97 0.89 0.67 0.50 0.55 0.54 0.51 0.52 0.52 0.47 0.38 0.29 0.22 0.17 0.14 0.15 0.14 0.13 0.14 0.21 0.34 0.45 0.48 0.50 0.50 0.49 0.45
2.06 2.15 2.22 2.13 2.08 2.14 2.17 2.06 2.01 1.86 1.68 1.56 1.40 1.27 1.15 1.05 1.03 0.90 0.80 0.57 0.53 0.53 0.55 0.58 0.54 0.53 0.43 0.31 0.25 0.21 0.17 0.15 0.17 0.15 0.17 0.26 0.41 0.49 0.49 0.47 0.47 0.49 0.49
2.23 2.32 2.41 2.32 2.32 2.29 2.25 2.12 2.02 1.87 1.81 1.74 1.62 1.40 1.31 1.25 1.13 1.10 0.97 0.84 0.76 0.62 0.61 0.57 0.56 0.50 0.42 0.36 0.32 0.25 0.22 0.21 0.20 0.18 0.19 0.26 0.40 0.50 0.53 0.54 0.52 0.51 0.57
2.49 2.61 2.62 2.58 2.57 2.51 2.41 2.22 1.99 1.80 1.70 1.68 1.63 1.59 1.49 1.39 1.24 1.12 1.01 0.88 0.82 0.71 0.63 0.56 0.50 0.45 0.41 0.41 0.41 0.34 0.28 0.23 0.20 0.21 0.20 0.22 0.30 0.46 0.55 0.58 0.60 0.61 0.65
2.78 2.83 2.89 2.84 2.73 2.58 2.54 2.45 2.10 1.81 1.60 1.59 1.61 1.59 1.56 1.41 1.24 1.15 1.05 1.00 0.91 0.77 0.72 0.65 0.55 0.49 0.45 0.44 0.43 0.37 0.33 0.28 0.25 0.26 0.23 0.20 0.21 0.34 0.52 0.58 0.62 0.69 0.75
2.97 3.10 3.21 3.10 2.93 2.65 2.47 2.47 2.27 1.96 1.73 1.63 1.57 1.53 1.59 1.53 1.40 1.32 1.12 1.07 1.01 0.92 0.86 0.80 0.70 0.65 0.58 0.54 0.48 0.42 0.39 0.35 0.34 0.36 0.33 0.26 0.22 0.24 0.37 0.59 0.78 0.86 0.92
3.05 3.28 3.38 3.37 3.22 2.88 2.59 2.52 2.39 2.17 1.97 1.79 1.52 1.45 1.48 1.56 1.61 1.59 1.33 1.18 1.09 1.04 1.04 0.98 0.89 0.83 0.74 0.64 0.56 0.52 0.46 0.40 0.34 0.35 0.33 0.31 0.27 0.24 0.26 0.43 0.68 0.83 0.93
3.10 3.30 3.41 3.44 3.39 3.17 2.83 2.68 2.57 2.36 2.17 2.00 1.76 1.59 1.50 1.54 1.68 1.78 1.51 1.30 1.20 1.18 1.14 1.06 0.96 0.89 0.79 0.73 0.64 0.57 0.51 0.44 0.39 0.35 0.33 0.30 0.29 0.25 0.23 0.27 0.42 0.62 0.77
2.93 3.19 3.47 3.46 3.39 3.31 3.17 3.03 2.89 2.71 2.48 2.23 1.94 1.72 1.69 1.68 1.74 1.88 1.60 1.38 1.33 1.28 1.19 1.16 1.09 0.99 0.88 0.81 0.74 0.68 0.61 0.53 0.46 0.41 0.35 0.30 0.28 0.26 0.24 0.24 0.26 0.35 0.49
2.74 3.04 3.25 3.56 3.57 3.61 3.60 3.45 3.28 3.14 2.88 2.56 2.18 1.90 1.82 1.78 1.75 1.91 1.82 1.55 1.50 1.43 1.29 1.18 1.14 1.15 1.11 1.01 0.93 0.84 0.76 0.67 0.58 0.49 0.42 0.36 0.29 0.27 0.26 0.25 0.26 0.27 0.33
2.49 2.81 2.95 3.20 3.49 3.58 3.52 3.28 3.10 2.97 3.00 2.86 2.52 2.21 2.13 2.01 1.85 1.87 1.94 1.81 1.62 1.52 1.42 1.32 1.24 1.20 1.23 1.27 1.25 1.10 0.96 0.84 0.70 0.58 0.51 0.44 0.37 0.33 0.32 0.32 0.33 0.34 0.34
2.21 2.39 2.70 2.82 3.16 3.28 3.18 3.15 3.06 3.06 3.05 3.02 2.88 2.60 2.41 2.28 2.09 1.95 1.91 1.91 1.78 1.64 1.60 1.59 1.48 1.38 1.30 1.29 1.33 1.33 1.21 1.13 0.89 0.67 0.59 0.55 0.49 0.47 0.43 0.40 0.39 0.41 0.41
1.95 2.22 2.35 2.49 2.75 3.07 3.18 3.33 3.45 3.45 3.25 3.05 2.94 2.86 2.65 2.53 2.38 2.13 2.00 2.00 1.95 1.78 1.63 1.65 1.69 1.64 1.60 1.55 1.43 1.52 1.42 1.18 0.98 0.79 0.65 0.61 0.58 0.57 0.54 0.50 0.47 0.47 0.48
1.59 1.98 2.29 2.49 2.65 2.86 3.25 3.27 3.17 3.04 2.84 2.63 2.69 2.81 2.80 2.68 2.57 2.36 2.24 2.20 2.10 1.95 1.80 1.77 1.80 1.87 1.88 1.81 1.69 1.52 1.39 1.19 1.14 0.99 0.76 0.66 0.62 0.57 0.56 0.56 0.52 0.47 0.47
1.32 1.70 2.06 2.32 2.64 2.87 3.02 3.10 3.14 2.92 2.70 2.67 2.68 2.74 2.69 2.61 2.54 2.45 2.35 2.40 2.30 2.14 2.04 2.01 1.98 2.02 2.03 1.96 1.83 1.68 1.57 1.39 1.24 1.19 0.98 0.78 0.75 0.68 0.60 0.57 0.57 0.58 0.59
1.18 1.41 1.79 2.06 2.21 2.51 2.81 2.88 2.92 2.90 2.82 2.77 2.61 2.58 2.64 2.63 2.57 2.47 2.43 2.42 2.41 2.34 2.22 2.15 2.11 2.13 2.12 2.06 1.97 1.80 1.69 1.59 1.41 1.37 1.25 1.02 0.96 0.87 0.77 0.70 0.66 0.66 0.67